FW1396 Weather Reports


Display with metric or nautical units.
time (UTC)temp
F
wind
direction
speed
MPH
gust
MPH
rain 1hr
in
rain 24hr
in
rain mn
in
humidity
%
barometer
mb
20260507103300 41 109 0.0 2.0 0.00 0.00 0.00 93 1001.4
20260507102800 41 109 1.0 2.0 0.00 0.00 0.00 94 1001.2
20260507102301 42 109 1.0 2.0 0.00 0.00 0.00 94 1001.3
20260507101800 42 109 0.0 0.0 0.00 0.00 0.00 94 1001.2
20260507101301 42 109 0.0 0.0 0.00 0.00 0.00 94 1001.1
20260507100801 42 109 0.0 0.0 0.00 0.00 0.00 94 1001.1
20260507100301 42 109 0.0 0.0 0.00 0.00 0.00 93 1001.1
20260507095801 42 109 0.0 0.0 0.00 0.00 0.00 94 1001.2
20260507095259 42 109 0.0 0.0 0.00 0.00 0.00 94 1001.1
20260507094804 42 109 0.0 0.0 0.00 0.00 0.00 94 1001.2
20260507094302 42 109 0.0 0.0 0.00 0.00 0.00 93 1001.2
20260507093800 42 109 0.0 0.0 0.00 0.00 0.00 93 1001.2
20260507093301 42 109 0.0 0.0 0.00 0.00 0.00 94 1001.2
20260507092759 43 109 0.0 0.0 0.00 0.00 0.00 93 1001.2
20260507092259 43 109 0.0 0.0 0.00 0.00 0.00 93 1001.3
20260507091759 43 109 0.0 0.0 0.00 0.00 0.00 93 1001.4
20260507091300 43 109 0.0 0.0 0.00 0.00 0.00 93 1001.4
20260507090800 43 109 0.0 0.0 0.00 0.00 0.00 93 1001.3
20260507090258 43 109 0.0 0.0 0.00 0.00 0.00 93 1001.3
20260507085759 44 109 0.0 0.0 0.00 0.00 0.00 93 1001.3
20260507085300 44 109 0.0 0.0 0.00 0.00 0.00 93 1001.2
20260507084759 44 109 0.0 0.0 0.00 0.00 0.00 93 1001.2
20260507084259 44 109 0.0 0.0 0.00 0.00 0.00 93 1001.1
20260507083759 44 109 0.0 0.0 0.00 0.01 0.00 93 1001.1
20260507083300 45 109 0.0 0.0 0.00 0.01 0.00 93 1001.1
20260507082758 45 109 0.0 2.0 0.00 0.01 0.00 93 1001.1
20260507082528 45 109 1.0 2.0 0.00 0.01 0.00 93 1001.2
20260507081757 45 109 1.0 2.0 0.00 0.01 0.00 93 1001.2
20260507081257 45 109 0.0 2.0 0.00 0.01 0.00 93 1001.3
20260507080757 45 109 0.0 2.0 0.00 0.01 0.00 93 1001.3
20260507080257 45 109 0.0 2.0 0.00 0.01 0.00 93 1001.2
20260507075756 45 109 0.0 3.0 0.00 0.01 0.00 93 1001.1
20260507075257 45 109 0.0 3.0 0.00 0.01 0.00 93 1001.0
20260507074755 45 109 1.0 2.0 0.00 0.01 0.00 93 1001.1
20260507073756 46 109 0.0 1.0 0.00 0.01 0.00 93 1000.9
20260507073527 46 109 0.0 0.0 0.00 0.01 0.00 93 1000.9
20260507072756 46 109 0.0 0.0 0.00 0.01 0.00 93 1000.9
20260507072255 46 109 0.0 0.0 0.00 0.01 0.00 93 1000.9
20260507071756 46 109 0.0 0.0 0.00 0.01 0.00 93 1000.9
20260507071525 46 109 0.0 0.0 0.00 0.01 0.00 93 1001.0
20260507070526 46 109 0.0 0.0 0.00 0.01 0.00 93 1001.0
20260507065756 46 109 0.0 0.0 0.00 0.01 0.00 93 1001.1
20260507065526 46 109 0.0 0.0 0.00 0.01 0.00 93 1000.9
20260507065025 46 109 0.0 0.0 0.00 0.01 0.00 93 1000.9
20260507064255 46 109 0.0 0.0 0.00 0.01 0.00 93 1000.8
20260507063753 46 109 0.0 0.0 0.00 0.01 0.00 92 1000.8
20260507063254 46 109 0.0 1.0 0.00 0.01 0.00 92 1000.8
20260507062754 46 109 0.0 2.0 0.00 0.01 0.00 92 1000.8
20260507062255 47 109 0.0 2.0 0.00 0.01 0.00 92 1000.8
20260507062026 47 109 1.0 2.0 0.00 0.01 0.00 92 1000.8
20260507061524 47 109 1.0 3.0 0.00 0.01 0.00 92 1000.8
20260507060753 47 109 2.0 3.0 0.00 0.01 0.00 92 1000.8
20260507060254 47 85 0.0 2.0 0.00 0.01 0.00 92 1000.9
20260507055253 47 85 0.0 0.0 0.00 0.01 0.00 91 1000.7
20260507054753 47 85 0.0 0.0 0.00 0.01 0.00 91 1000.7
20260507054253 47 85 0.0 0.0 0.00 0.01 0.00 91 1000.7
20260507053754 47 85 0.0 0.0 0.00 0.01 0.00 91 1000.7
20260507053252 47 85 0.0 0.0 0.00 0.01 0.00 91 1000.6
20260507052752 47 85 0.0 0.0 0.00 0.02 0.00 91 1000.6
20260507052524 47 85 0.0 0.0 0.00 0.04 0.00 91 1000.4
20260507051752 47 85 0.0 0.0 0.00 0.06 0.00 90 1000.5
20260507051524 48 85 0.0 0.0 0.00 0.06 0.00 91 1000.5
20260507050752 48 85 0.0 0.0 0.00 0.06 0.00 90 1000.4
20260507050252 48 85 0.0 0.0 0.00 0.06 0.00 90 1000.5
20260507045751 48 85 0.0 0.0 0.00 0.06 0.06 90 1000.3
20260507045522 48 85 0.0 0.0 0.00 0.06 0.06 90 1000.3
20260507044752 48 85 0.0 0.0 0.00 0.06 0.06 90 1000.3
20260507044254 49 85 0.0 0.0 0.00 0.06 0.06 90 1000.3
20260507043753 49 85 0.0 0.0 0.00 0.08 0.06 90 1000.2
20260507043523 49 85 0.0 0.0 0.00 0.08 0.06 90 1000.2
20260507042752 49 85 0.0 0.0 0.00 0.08 0.06 89 1000.2
20260507042523 49 85 0.0 0.0 0.00 0.09 0.06 89 1000.1
20260507042025 49 85 0.0 0.0 0.00 0.09 0.06 89 1000.1
20260507041252 50 85 0.0 0.0 0.00 0.10 0.06 89 1000.2
20260507041022 50 85 0.0 0.0 0.00 0.15 0.06 89 1000.1
20260507040249 50 85 0.0 0.0 0.00 0.19 0.06 89 1000.1
20260507040021 50 85 0.0 0.0 0.00 0.24 0.06 89 1000.2
20260507035250 50 85 0.0 0.0 0.00 0.25 0.06 89 1000.1
20260507034749 51 85 0.0 0.0 0.00 0.26 0.06 89 1000.1
20260507034251 51 85 0.0 0.0 0.00 0.26 0.06 88 1000.3
20260507033749 51 85 0.0 0.0 0.00 0.26 0.06 88 1000.1
20260507033250 51 85 0.0 0.0 0.00 0.26 0.06 88 1000.3
20260507032750 51 85 0.0 0.0 0.00 0.26 0.06 88 1000.4
20260507032248 51 85 0.0 0.0 0.00 0.26 0.06 88 1000.3
20260507031749 51 85 0.0 0.0 0.00 0.26 0.06 87 1000.2
20260507031526 51 85 0.0 0.0 0.00 0.26 0.06 87 1000.2
20260507031020 51 85 0.0 0.0 0.00 0.26 0.06 87 1000.2
20260507030249 52 85 0.0 0.0 0.00 0.26 0.06 87 1000.2
20260507030019 52 85 0.0 0.0 0.00 0.26 0.06 86 1000.1
20260507025248 52 85 0.0 0.0 0.00 0.26 0.06 86 1000.2
20260507024747 52 85 0.0 0.0 0.00 0.26 0.06 86 1000.2
20260507024248 52 85 0.0 1.0 0.00 0.26 0.06 86 1000.1
20260507023746 52 85 0.0 1.0 0.00 0.27 0.06 86 1000.0
20260507023248 53 85 0.0 2.0 0.00 0.31 0.06 86 999.8
20260507022747 53 85 0.0 2.0 0.00 0.37 0.06 86 999.7
20260507022248 53 85 1.0 1.0 0.00 0.39 0.06 84 999.8
20260507021748 53 85 0.0 1.0 0.00 0.40 0.06 84 999.9
20260507021247 53 85 0.0 0.0 0.00 0.40 0.06 84 1000.1
20260507020747 54 85 0.0 0.0 0.00 0.40 0.06 82 1000.1
20260507020246 54 85 0.0 0.0 0.00 0.40 0.06 82 1000.2
20260507015744 54 85 0.0 0.0 0.00 0.40 0.06 82 999.9
20260507015246 54 85 0.0 2.0 0.00 0.40 0.06 82 999.9
20260507014745 54 85 1.0 2.0 0.00 0.40 0.06 82 999.7
20260507014517 55 85 0.0 2.0 0.00 0.40 0.06 81 999.4
20260507013747 55 85 1.0 2.0 0.00 0.40 0.06 81 999.4
20260507013516 55 85 1.0 2.0 0.00 0.40 0.06 80 999.2
20260507012745 56 85 1.0 2.0 0.00 0.41 0.06 78 999.3
20260507012245 57 85 0.0 2.0 0.00 0.41 0.06 78 999.4
20260507011743 58 85 1.0 2.0 0.00 0.41 0.06 75 999.5
20260507011246 58 85 1.0 2.0 0.00 0.41 0.06 75 999.4
20260507010744 59 85 0.0 1.0 0.00 0.41 0.06 72 999.5
20260507010515 59 85 0.0 1.0 0.00 0.41 0.06 72 999.4
20260507005742 59 85 0.0 1.0 0.00 0.41 0.06 72 999.6
20260507005244 59 85 1.0 2.0 0.00 0.41 0.06 70 999.6
20260507004744 60 85 0.0 2.0 0.00 0.41 0.06 70 999.3
20260507004243 60 85 0.0 0.0 0.00 0.41 0.06 67 999.2
20260507004016 60 85 0.0 1.0 0.00 0.42 0.06 67 999.3
20260507003243 60 85 0.0 2.0 0.00 0.42 0.06 65 999.2
20260507003013 60 85 0.0 2.0 0.00 0.42 0.06 65 999.1
20260507002512 60 87 0.0 2.0 0.00 0.42 0.06 64 998.9
20260507001742 61 87 2.0 3.0 0.00 0.42 0.06 62 998.9
20260507001513 61 87 2.0 3.0 0.00 0.42 0.06 62 999.1
20260507001012 61 92 1.0 2.0 0.00 0.42 0.06 63 998.9
20260507000240 61 92 0.0 3.0 0.00 0.42 0.06 62 998.8
20260506235740 61 92 1.0 3.0 0.00 0.42 0.06 62 998.9
20260506235241 61 92 1.0 4.0 0.00 0.42 0.06 61 998.6
20260506234739 62 92 1.0 4.0 0.00 0.42 0.06 61 998.6
20260506234241 62 72 1.0 3.0 0.00 0.42 0.06 61 998.5
20260506233741 62 71 0.0 4.0 0.00 0.42 0.06 61 998.4
20260506233512 62 99 3.0 4.0 0.00 0.42 0.06 60 998.3
20260506232740 62 59 2.0 6.0 0.00 0.42 0.06 59 998.2
20260506232240 62 94 3.0 6.0 0.00 0.42 0.06 58 998.3
20260506231740 62 45 3.0 5.0 0.00 0.42 0.06 58 998.2
20260506231240 62 45 3.0 9.0 0.00 0.42 0.06 58 998.1
20260506230738 62 80 4.0 9.0 0.00 0.42 0.06 58 998.0
20260506230509 62 65 2.0 5.0 0.00 0.42 0.06 56 997.8
20260506225739 62 51 3.0 5.0 0.00 0.42 0.06 56 997.7
20260506225239 63 27 3.0 7.0 0.00 0.42 0.06 55 997.9
20260506224735 63 24 3.0 7.0 0.00 0.42 0.06 55 997.8
20260506224237 63 17 3.0 5.0 0.00 0.42 0.06 54 997.8
20260506223737 63 72 4.0 6.0 0.00 0.43 0.06 55 997.9
20260506223238 63 72 4.0 6.0 0.00 0.43 0.06 55 997.8
20260506222739 63 75 4.0 9.0 0.00 0.43 0.06 55 997.9
20260506222237 64 10 3.0 9.0 0.00 0.43 0.06 53 997.8
20260506221736 64 86 4.0 7.0 0.00 0.43 0.06 51 997.6
20260506221239 64 62 3.0 6.0 0.00 0.43 0.06 53 997.7
20260506220737 64 76 3.0 4.0 0.00 0.43 0.06 52 997.8
20260506220237 63 58 5.0 10.0 0.00 0.43 0.06 52 997.8
20260506220006 63 58 5.0 11.0 0.00 0.43 0.06 52 997.9
20260506215507 63 79 5.0 11.0 0.00 0.43 0.06 54 997.9
20260506215006 63 116 4.0 10.0 0.00 0.43 0.06 54 998.0
20260506214234 63 85 4.0 10.0 0.00 0.43 0.06 54 998.1
20260506213235 63 76 3.0 5.0 0.00 0.43 0.06 56 998.3
20260506212736 63 100 1.0 3.0 0.00 0.43 0.06 54 998.7
20260506212233 63 69 3.0 5.0 0.00 0.43 0.06 54 998.7
20260506211733 63 69 3.0 6.0 0.00 0.43 0.06 54 998.7
20260506211234 63 92 4.0 6.0 0.00 0.43 0.06 55 998.7
20260506211004 63 0 3.0 5.0 0.00 0.43 0.06 56 999.0
20260506210233 63 41 3.0 6.0 0.00 0.43 0.06 55 999.0
20260506205734 63 41 3.0 6.0 0.00 0.43 0.06 55 998.9
20260506205232 63 18 2.0 3.0 0.00 0.43 0.06 55 998.9
20260506204731 64 348 2.0 3.0 0.00 0.43 0.06 54 999.0
20260506204501 64 102 2.0 7.0 0.00 0.43 0.06 54 999.1
20260506203730 64 102 3.0 7.0 0.00 0.43 0.06 54 999.1
20260506203230 64 87 4.0 7.0 0.00 0.43 0.06 54 999.1
20260506202729 64 80 3.0 7.0 0.00 0.43 0.06 54 999.2
20260506202230 65 24 1.0 5.0 0.00 0.43 0.06 53 999.3
20260506201730 65 348 3.0 5.0 0.00 0.43 0.06 54 999.3
20260506201230 65 25 2.0 7.0 0.00 0.43 0.06 53 999.2
20260506200730 65 49 2.0 7.0 0.00 0.43 0.06 54 999.1
20260506200230 64 86 2.0 6.0 0.00 0.43 0.06 55 999.0
20260506195728 64 86 2.0 7.0 0.00 0.43 0.06 55 998.9
20260506195229 64 87 4.0 7.0 0.00 0.43 0.06 55 999.0
20260506194728 64 135 2.0 7.0 0.00 0.45 0.06 55 999.4
20260506194228 64 134 2.0 7.0 0.00 0.45 0.06 55 999.4
20260506193728 64 28 4.0 5.0 0.00 0.45 0.06 53 999.3
20260506193226 64 28 4.0 7.0 0.00 0.45 0.06 53 999.3
20260506192726 64 71 3.0 9.0 0.00 0.45 0.06 53 999.4
20260506192225 64 92 4.0 9.0 0.00 0.45 0.06 56 999.3
20260506191728 63 114 3.0 4.0 0.00 0.45 0.06 54 999.5
20260506191225 63 110 3.0 7.0 0.00 0.45 0.06 55 999.6
20260506190730 63 116 4.0 7.0 0.00 0.45 0.06 55 999.7
20260506190225 62 48 2.0 4.0 0.00 0.45 0.06 58 999.6
20260506185723 62 48 2.0 5.0 0.00 0.45 0.06 58 999.6
20260506185223 62 21 3.0 6.0 0.00 0.45 0.06 58 999.3
20260506184724 62 104 4.0 7.0 0.00 0.50 0.06 56 999.5
20260506183954 62 66 3.0 7.0 0.00 0.50 0.06 58 999.5
20260506183222 61 55 2.0 7.0 0.00 0.50 0.06 61 999.3
20260506182722 61 104 3.0 5.0 0.00 0.50 0.06 60 999.3
20260506182223 61 16 2.0 11.0 0.00 0.50 0.06 60 999.2
20260506181951 61 0 3.0 11.0 0.00 0.50 0.06 60 999.1
20260506181223 61 16 1.0 2.0 0.00 0.50 0.06 60 999.1
20260506180722 60 0 2.0 3.0 0.00 0.50 0.06 64 999.2
20260506180221 60 0 2.0 7.0 0.00 0.50 0.06 64 999.4
20260506175720 60 0 4.0 7.0 0.00 0.50 0.06 64 999.6
20260506175221 60 37 4.0 6.0 0.00 0.50 0.06 62 999.7
20260506174720 60 87 4.0 5.0 0.00 0.50 0.06 63 999.6
20260506174220 61 3 4.0 6.0 0.00 0.50 0.06 63 999.5
20260506173718 61 3 4.0 6.0 0.00 0.50 0.06 63 999.7
20260506173218 61 347 3.0 7.0 0.00 0.50 0.06 63 999.8
20260506172218 61 75 2.0 7.0 0.00 0.50 0.06 65 999.8
20260506171718 59 27 2.0 4.0 0.00 0.50 0.06 73 1000.0
20260506171217 59 27 2.0 4.0 0.00 0.51 0.06 73 1000.0
20260506170716 58 45 3.0 5.0 0.00 0.51 0.06 73 999.9
20260506170215 58 45 3.0 5.0 0.00 0.51 0.06 73 1000.0
20260506165947 58 42 3.0 7.0 0.00 0.51 0.06 73 1000.0
20260506165215 58 0 4.0 7.0 0.00 0.51 0.06 73 1000.0
20260506164715 58 82 2.0 7.0 0.00 0.51 0.06 71 1000.2
20260506164215 58 0 4.0 7.0 0.00 0.51 0.06 71 1000.3
20260506163716 58 39 1.0 7.0 0.00 0.51 0.06 69 1000.2
20260506163215 58 89 1.0 2.0 0.00 0.51 0.06 73 1000.1
20260506162713 58 89 1.0 5.0 0.00 0.51 0.06 73 999.9
20260506162214 58 86 1.0 10.0 0.00 0.51 0.06 72 1000.0
20260506161713 58 96 5.0 10.0 0.00 0.51 0.06 73 999.9
20260506161214 57 79 5.0 7.0 0.00 0.51 0.06 74 999.9
20260506160713 57 90 4.0 9.0 0.00 0.51 0.06 75 999.8
20260506160213 56 94 3.0 9.0 0.00 0.51 0.06 75 999.8
20260506155714 56 65 5.0 7.0 0.00 0.51 0.06 78 999.7
20260506155444 55 82 3.0 5.0 0.00 0.51 0.06 78 999.7
20260506154711 55 82 3.0 5.0 0.00 0.51 0.06 78 999.5
20260506154212 55 58 4.0 5.0 0.00 0.51 0.06 79 999.6
20260506153710 55 58 4.0 7.0 0.00 0.51 0.06 79 999.8
20260506153211 55 75 3.0 7.0 0.00 0.51 0.06 82 999.8
20260506152711 54 93 3.0 5.0 0.00 0.51 0.06 81 999.8
20260506152210 54 124 2.0 5.0 0.00 0.51 0.06 82 999.8
20260506151710 53 106 3.0 6.0 0.00 0.51 0.06 84 999.9
20260506151440 53 34 4.0 6.0 0.00 0.51 0.06 84 999.9
20260506150939 53 0 3.0 6.0 0.00 0.51 0.06 86 999.6
20260506150210 52 83 2.0 4.0 0.00 0.51 0.06 87 999.5
20260506145708 52 92 3.0 4.0 0.00 0.51 0.06 88 999.4
20260506145207 51 89 2.0 5.0 0.00 0.51 0.06 89 999.5
20260506144940 51 96 2.0 5.0 0.00 0.51 0.06 90 999.5
20260506144208 51 8 2.0 4.0 0.00 0.51 0.06 90 999.6
20260506143710 51 10 2.0 4.0 0.00 0.51 0.06 91 999.7
20260506143208 50 96 0.0 5.0 0.00 0.51 0.06 91 999.8
20260506142708 50 99 2.0 5.0 0.00 0.51 0.06 91 999.7
20260506142208 50 66 2.0 5.0 0.00 0.51 0.06 91 999.7
20260506141709 50 52 1.0 5.0 0.00 0.51 0.06 92 999.5
20260506141209 49 68 2.0 5.0 0.00 0.51 0.06 93 999.5
20260506140708 49 49 2.0 3.0 0.00 0.51 0.06 93 999.3
20260506140208 49 94 0.0 3.0 0.00 0.51 0.06 94 999.5
20260506135713 49 93 2.0 6.0 0.00 0.51 0.06 93 999.7
20260506135207 49 39 1.0 6.0 0.00 0.51 0.06 93 999.6
20260506134709 49 56 4.0 6.0 0.00 0.51 0.06 94 999.4
20260506134207 49 66 2.0 4.0 0.00 0.51 0.06 95 999.3
20260506133708 48 37 2.0 3.0 0.00 0.51 0.06 95 999.5
20260506133206 48 37 2.0 4.0 0.00 0.51 0.06 95 999.5
20260506132707 48 30 1.0 6.0 0.00 0.51 0.06 95 999.5
20260506132207 48 75 1.0 6.0 0.00 0.51 0.06 95 999.5
20260506131936 48 90 1.0 7.0 0.00 0.51 0.06 95 999.4
20260506131205 48 18 2.0 7.0 0.00 0.51 0.06 95 999.3
20260506130705 48 56 1.0 6.0 0.00 0.51 0.06 95 999.1
20260506130206 47 93 1.0 4.0 0.00 0.51 0.06 95 999.0
20260506125706 47 99 2.0 4.0 0.00 0.51 0.06 95 999.3
20260506125205 47 109 1.0 3.0 0.00 0.51 0.06 96 999.2
20260506124705 47 32 2.0 3.0 0.00 0.51 0.06 96 999.0
20260506124206 47 92 1.0 9.0 0.00 0.51 0.06 95 999.0
20260506123937 47 99 3.0 9.0 0.00 0.51 0.06 95 999.0
20260506123205 47 111 2.0 4.0 0.00 0.51 0.06 96 999.0
20260506122704 47 355 1.0 3.0 0.00 0.51 0.06 96 998.7
20260506122206 47 0 0.0 1.0 0.00 0.51 0.06 96 998.7
20260506121704 47 0 0.0 3.0 0.00 0.51 0.06 96 998.6
20260506121204 47 0 0.0 3.0 0.00 0.51 0.06 96 998.3
20260506120704 47 27 1.0 3.0 0.00 0.51 0.06 96 998.2
20260506120204 47 31 1.0 3.0 0.00 0.51 0.06 96 998.0
20260506115935 47 23 2.0 3.0 0.00 0.51 0.06 96 997.9
20260506115202 47 23 2.0 3.0 0.00 0.51 0.06 96 997.8
20260506114933 47 71 2.0 3.0 0.00 0.51 0.06 96 997.5
20260506114202 47 135 0.0 1.0 0.00 0.51 0.06 96 997.1
20260506113702 47 135 0.0 2.0 0.00 0.51 0.06 96 997.2
20260506113434 46 135 0.0 2.0 0.00 0.52 0.06 96 997.3
20260506112702 47 135 1.0 2.0 0.00 0.52 0.06 96 997.4
20260506112202 46 135 1.0 2.0 0.00 0.52 0.06 95 997.2
20260506111704 46 135 1.0 4.0 0.00 0.53 0.06 95 997.3
20260506111201 46 0 0.0 4.0 0.00 0.53 0.06 95 997.4
20260506110700 46 63 1.0 3.0 0.00 0.53 0.06 95 997.1
20260506110159 46 65 1.0 3.0 0.00 0.54 0.06 95 997.3
20260506105700 46 76 2.0 4.0 0.00 0.54 0.06 95 997.1
20260506105159 46 76 2.0 4.0 0.00 0.57 0.06 95 996.7
20260506104658 46 65 1.0 3.0 0.00 0.57 0.06 95 996.7
20260506104158 46 66 1.0 3.0 0.00 0.57 0.06 96 996.8
20260506103929 46 61 2.0 3.0 0.00 0.57 0.06 95 996.7